Regional Weather Roundup
Issued by NWS

Home | Current Version | Previous Version | Text Only | Print | Product List | Glossary Off
Versions: 1 2 3 4 5 6 7 8 9 10 11 12 13 14 15 16 17 18 19 20 21 22 23 24 25 26 27 28 29 30 31 32 33 34 35 36 37 38 39 40 41 42 43 44 45 46 47 48 49 50

000
ASUS44 KMEG 312200
RWRTN
TENNESSEE HOURLY STATE WEATHER ROUNDUP
NATIONAL WEATHER SERVICE MEMPHIS TN
500 PM CDT TUE MAY 31 2016

TNZ002-004-019-021-049-052-054-088>092-312300-
WEST TENNESSEE

CITY           SKY/WX    TMP DP  RH WIND       PRES   REMARKS
MEMPHIS INTL   MOSUNNY   86  67  52 SW8       29.87F
NWS MEMPHIS      N/A     85 N/A N/A MISG        N/A
JACKSON        MOSUNNY   83  66  56 S6        29.89F
DYERSBURG      MOSUNNY   82  64  54 SW3       29.87F
UNION CITY     MOSUNNY   84  66  54 E5        29.87F
PARIS          MOSUNNY   84  64  51 CALM      29.90F
LEXINGTON      SUNNY     84  63  48 VRB5      29.89S
$$

TNZ008-025-027-028-033-062-065-066-312300-
NORTH MIDDLE TENNESSEE

CITY           SKY/WX    TMP DP  RH WIND       PRES   REMARKS
NASHVILLE      PTSUNNY   88  58  36 CALM      29.90F
CLARKSVILLE    PTSUNNY   84  62  47 SW5       29.89F
COOKEVILLE     SUNNY     84  66  54 NE5       29.92F
CROSSVILLE     SUNNY     80  61  52 VRB5      29.98F
$$

TNZ061-075-076-078-094-096-097-312300-
SOUTH MIDDLE TENNESSEE

CITY           SKY/WX    TMP DP  RH WIND       PRES   REMARKS
TULLAHOMA      SUNNY     86  55  35 N5        29.93S
WINCHESTER     SUNNY     90  57  33 VRB5      29.91F
MCMINNVILLE    SUNNY     88  59  37 VRB6      29.92F
COLUMBIA       SUNNY     88  64  45 W5        29.90S
SHELBYVILLE    SUNNY     91  61  35 N7        29.91S HX  91
$$

TNZ017-018-042-046-047-312300-
NORTHEAST TENNESSEE

CITY           SKY/WX    TMP DP  RH WIND       PRES   REMARKS
TRI CITIES     PTSUNNY   83  63  50 SE8       29.95S
$$

TNZ012-013-036-069-073-074-312300-
CENTRAL EAST TENNESSEE

CITY           SKY/WX    TMP DP  RH WIND       PRES   REMARKS
KNOXVILLE      MOSUNNY   88  58  36 NW5       29.91S
OAK RIDGE      SUNNY     89  59  36 N6        29.93S
GATLINBURG       N/A     82  63  51 CALM      29.92S
$$

TNZ083-085-099-312300-
SOUTHEAST TENNESSEE

CITY           SKY/WX    TMP DP  RH WIND       PRES   REMARKS
CHATTANOOGA    MOSUNNY   93  55  27 N7        29.89F HX  91
$$

SKY/WX REPORTED AS FAIR MEANS FEW OR NO CLOUDS BELOW
12 THOUSAND FEET.




USA.gov is the U.S. government's official web portal to all federal, state and local government web resources and services.